This is the latest recevied weather packets stored in our database for station/object N3TTT-13. If no packets are shown the sender has not sent any weather packets the latest 10 day(s).
| Time | Temp. | Humidity | Pressure | Rain* | Wind** | Luminosity | Snow |
|---|---|---|---|---|---|---|---|
| 1777820351 | 11.11° C | 51% | 1016 hPa | 0 mm | - | 836 W/m² | - |
| 1777820049 | 11.67° C | 52% | 1015.8 hPa | 0 mm | - | 243 W/m² | - |
| 1777819746 | 11.11° C | 50% | 1016.1 hPa | 0 mm | - | 861 W/m² | - |
| 1777819444 | 11.67° C | 54% | 1016 hPa | 0 mm | - | 819 W/m² | - |
| 1777819142 | 10.56° C | 53% | 1015.7 hPa | 0 mm | - | 805 W/m² | - |
| 1777818838 | 11.11° C | 55% | 1016 hPa | 0 mm | - | 770 W/m² | - |
| 1777818534 | 11.67° C | 54% | 1015.9 hPa | 0 mm | - | 753 W/m² | - |
| 1777818232 | 11.11° C | 53% | 1016.1 hPa | 0 mm | - | 764 W/m² | - |
| 1777817927 | 11.11° C | 56% | 1015.8 hPa | 0 mm | - | 767 W/m² | - |
| 1777817625 | 10.56° C | 56% | 1015.9 hPa | 0 mm | - | 708 W/m² | - |
| 1777817322 | 11.11° C | 55% | 1016 hPa | 0 mm | - | 698 W/m² | - |
| 1777817019 | 11.67° C | 56% | 1015.9 hPa | 0 mm | - | 651 W/m² | - |
| 1777816715 | 10.56° C | 58% | 1015.9 hPa | 0 mm | - | 247 W/m² | - |
| 1777816412 | 10.56° C | 56% | 1015.8 hPa | 0 mm | - | 651 W/m² | - |
| 1777816110 | 10° C | 59% | 1015.7 hPa | 0 mm | - | 648 W/m² | - |
| 1777815807 | 10° C | 58% | 1015.8 hPa | 0 mm | - | 623 W/m² | - |
| 1777815505 | 10.56° C | 59% | 1015.6 hPa | 0 mm | - | 658 W/m² | - |
| 1777815202 | 9.44° C | 62% | 1015.6 hPa | 0 mm | - | 680 W/m² | - |
| 1777814898 | 10° C | 61% | 1015.6 hPa | 0 mm | - | 195 W/m² | - |
| 1777814595 | 10° C | 62% | 1015.5 hPa | 0 mm | - | 442 W/m² | - |
| 1777814292 | 10° C | 61% | 1015.8 hPa | 0 mm | - | 424 W/m² | - |
| 1777813988 | 10° C | 62% | 1015.6 hPa | 0 mm | - | 232 W/m² | - |
| 1777813686 | 10° C | 61% | 1015.8 hPa | 0 mm | - | 498 W/m² | - |
| 1777813383 | 8.89° C | 63% | 1015.6 hPa | 0 mm | - | 419 W/m² | - |
| 1777813080 | 8.89° C | 63% | 1015.8 hPa | 0 mm | - | 399 W/m² | - |
* Rain latest hour (hover to see other rain measurements)
** Current wind speed in m/s (hover to see current wind gust speed)